TimeCST,TemperatureF,Dew PointF,Humidity,Sea Level PressureIn,VisibilityMPH,Wind Direction,Wind SpeedMPH,Gust SpeedMPH,PrecipitationIn,Events,Conditions,WindDirDegrees,DateUTC
12:56 AM,31.1,21.0,66,30.22,10.0,North,8.1,-,N/A,,Clear,10,2013-02-16 06:56:00
1:56 AM,28.0,21.0,75,30.22,10.0,North,6.9,-,N/A,,Clear,360,2013-02-16 07:56:00
2:56 AM,26.1,20.1,78,30.20,10.0,Calm,Calm,-,N/A,,Clear,0,2013-02-16 08:56:00
3:56 AM,26.1,19.0,75,30.19,10.0,North,5.8,-,N/A,,Clear,10,2013-02-16 09:56:00
5:56 AM,23.0,18.1,82,30.20,10.0,NW,4.6,-,N/A,,Clear,320,2013-02-16 11:56:00
6:56 AM,24.1,19.0,81,30.20,10.0,Calm,Calm,-,N/A,,Clear,0,2013-02-16 12:56:00
7:56 AM,29.1,21.0,72,30.22,10.0,NW,5.8,-,N/A,,Clear,320,2013-02-16 13:56:00
8:56 AM,32.9,20.1,59,30.22,10.0,NNW,8.1,-,N/A,,Clear,330,2013-02-16 14:56:00
9:56 AM,36.0,18.1,48,30.22,10.0,NNW,11.5,-,N/A,,Mostly Cloudy,340,2013-02-16 15:56:00
10:56 AM,36.9,19.0,49,30.23,10.0,NW,12.7,-,N/A,,Mostly Cloudy,310,2013-02-16 16:56:00
11:56 AM,36.0,18.1,48,30.21,10.0,NNW,10.4,-,0.00,Snow,Light Snow,340,2013-02-16 17:56:00
12:56 PM,36.0,17.1,46,30.19,10.0,NNW,10.4,-,0.00,,Mostly Cloudy,330,2013-02-16 18:56:00
1:56 PM,36.9,18.1,47,30.18,10.0,North,13.8,-,N/A,,Mostly Cloudy,10,2013-02-16 19:56:00
2:56 PM,37.9,12.0,35,30.18,10.0,NNW,12.7,-,N/A,,Partly Cloudy,340,2013-02-16 20:56:00
3:56 PM,37.9,9.1,30,30.19,10.0,NNW,21.9,-,N/A,,Scattered Clouds,340,2013-02-16 21:56:00
4:56 PM,36.0,9.1,33,30.20,10.0,North,15.0,-,N/A,,Partly Cloudy,350,2013-02-16 22:56:00
5:56 PM,32.0,10.0,40,30.23,10.0,NNW,9.2,-,N/A,,Clear,340,2013-02-16 23:56:00
6:56 PM,31.1,9.1,40,30.25,10.0,North,9.2,-,N/A,,Clear,350,2013-02-17 00:56:00
7:56 PM,27.1,11.1,51,30.26,10.0,NNW,3.5,-,N/A,,Clear,340,2013-02-17 01:56:00
8:56 PM,27.1,10.0,49,30.27,10.0,Calm,Calm,-,N/A,,Clear,0,2013-02-17 02:56:00
9:56 PM,23.0,11.1,60,30.27,10.0,Calm,Calm,-,N/A,,Clear,0,2013-02-17 03:56:00
10:56 PM,22.1,14.0,71,30.27,10.0,Calm,Calm,-,N/A,,Clear,0,2013-02-17 04:56:00
11:56 PM,21.0,15.1,78,30.27,10.0,Calm,Calm,-,N/A,,Clear,0,2013-02-17 05:56:00